Regional Weather Roundup
Issued by NWS State College, PA

Home | Current Version | Previous Version | Text Only | Print | Product List | Glossary Off
Versions: 1 2 3 4 5 6 7 8 9 10 11 12 13 14 15 16 17 18 19 20 21 22 23 24 25 26 27 28 29 30 31 32 33 34 35 36 37 38 39 40 41 42 43 44 45 46 47 48 49 50

000
ASUS41 KCTP 290003
RWRCTP

REGIONAL WEATHER ROUNDUP
NATIONAL WEATHER SERVICE STATE COLLEGE PA
800 PM EDT THU JUL 28 2016

Note: "fair" indicates few or no clouds below 12,000 feet with no
significant weather and/or obstructions to visibility.

* = STATION THAT DOES NOT REPORT PRECIPITATION /E.G. RAIN...SNOW...ETC/
    THUNDER OR FOG.

PAZ002>004-007>009-013>016-020>023-029>032-290100-
WESTERN PENNSYLVANIA

CITY           SKY/WX    TMP DP  RH WIND       PRES   REMARKS
ERIE           CLOUDY    79  63  57 S6        29.89R
MEADVILLE      CLOUDY    69  66  90 CALM      29.92S
FRANKLIN*      CLOUDY    70  64  83 CALM      29.94S
NEW CASTLE     MOCLDY    72  67  84 MISG      29.92R
BEAVER COUNTY  CLEAR     70  66  88 S3        29.91F
BUTLER*        CLOUDY    72  66  83 SW3       29.94S
PITTSBURGH INT CLOUDY    71  66  84 SW3       29.91S
PITTSBURGH     MOCLDY    72  67  84 S5        29.91R
INDIANA*       MOCLDY    72  70  94 CALM      29.96R
LATROBE        MOCLDY    72  70  94 CALM      29.92R
WASHINGTON CO* CLOUDY    72  68  88 CALM      29.93R
$$

PAZ004>006-010>012-017>019-024>028-033>037-041-042-045-046-049>053-290100-
CENTRAL PENNSYLVANIA

CITY           SKY/WX    TMP DP  RH WIND       PRES   REMARKS
BRADFORD       CLOUDY    73  65  75 SW3       29.95S
DUBOIS         CLOUDY    69  65  86 CALM      29.94F
CLEARFIELD     LGT RAIN  71  67  87 SW3       29.93F
JOHNSTOWN      LGT RAIN  68  65  90 CALM      29.96R FOG
ALTOONA        LGT RAIN  70  69  97 CALM      29.94S FOG
STATE COLLEGE  RAIN      70  68  94 S5        29.92F
WILLIAMSPORT   MOCLDY    82  65  56 SW6       29.85R
SELINSGROVE    LGT RAIN  75  74  96 SW3       29.89S
FT INDIANTOWN  NOT AVBL
CAPITAL CITY   LGT RAIN  78  69  73 E5        29.88F
HARRISBURG     LGT RAIN  77  71  82 E9        29.87F
YORK           LGT RAIN  75  72  90 NE7       29.89S
$$

PAZ038>040-043-044-047-048-054-055-060>062-067>071-290100-
EASTERN PENNSYLVANIA

CITY           SKY/WX    TMP DP  RH WIND       PRES   REMARKS
SCRANTON       MOCLDY    78  67  68 VRB3      29.90R
MOUNT POCONO   LGT RAIN  70  66  87 S3        29.96S
ALLENTOWN      CLOUDY    75  72  90 CALM      29.90R
QUAKERTOWN*    CLOUDY    73  73 100 CALM      29.90R
READING        CLOUDY    74  70  87 W3        29.88R
LANCASTER      CLOUDY    75  71  87 N5        29.89S
COATESVILLE    CLOUDY    73  72  94 CALM      29.91R
POTTSTOWN      CLOUDY    74  72  93 CALM      29.89S
BLUE BELL      CLOUDY    72  72 100 CALM      29.86S
DOYLESTOWN     CLOUDY    72  72 100 S3        29.87F
WILLOW GROVE   NOT AVBL
NORTH PHILA    CLOUDY    76  71  85 CALM      29.87F
PHILADELPHIA   CLOUDY    76  72  87 SE6       29.87S
$$




USA.gov is the U.S. government's official web portal to all federal, state and local government web resources and services.